Location: Limerick
(52.6800°N, 8.6400°W)
Time: 14:30:17
(UTC+01:00)

ISS - All Passes

Search period start: 06 July 2015 00:00
Search period end: 16 July 2015 00:00
Orbit: 398 x 403 km, 51.6° (Epoch: 05 July)

Date Brightness Start Highest point End Pass type
(mag) Time Alt. Az. Time Alt. Az. Time Alt. Az.
06 Jul - 09:37:35 10° SW 09:40:30 31° SSE 09:43:27 10° E daylight
06 Jul - 11:13:25 10° WSW 11:16:39 71° S 11:19:54 10° E daylight
06 Jul - 12:49:44 10° W 12:52:57 60° SSW 12:56:10 10° ESE daylight
06 Jul - 14:26:24 10° W 14:28:58 21° SSW 14:31:30 10° SSE daylight
07 Jul - 08:44:33 10° SSW 08:47:07 22° SSE 08:49:42 10° E daylight
07 Jul - 10:19:55 10° WSW 10:23:08 60° SSE 10:26:21 10° E daylight
07 Jul - 11:56:12 10° W 11:59:26 71° S 12:02:40 10° ESE daylight
07 Jul - 13:32:39 10° W 13:35:35 31° SSW 13:38:29 10° SE daylight
08 Jul - 07:51:55 10° S 07:53:46 14° SE 07:55:40 10° ESE daylight
08 Jul - 09:26:29 10° SW 09:29:37 47° SSE 09:32:46 10° E daylight
08 Jul - 11:02:38 10° W 11:05:53 76° S 11:09:08 10° E daylight
08 Jul - 12:39:00 10° W 12:42:07 43° SSW 12:45:13 10° SE daylight
08 Jul - 14:16:19 10° WSW 14:17:57 13° SW 14:19:29 10° S daylight
09 Jul - 08:33:10 10° SW 08:36:08 34° SSE 08:39:08 10° E daylight
09 Jul - 10:09:04 10° W 10:12:18 73° S 10:15:33 10° E daylight
09 Jul - 11:45:24 10° W 11:48:36 57° SSW 11:51:48 10° ESE daylight
09 Jul - 13:22:07 10° W 13:24:34 20° SSW 13:27:00 10° SSE daylight
10 Jul - 07:40:01 10° SSW 07:42:41 24° SSE 07:45:22 10° E daylight
10 Jul - 09:15:30 10° WSW 09:18:44 63° SSE 09:21:57 10° E daylight
10 Jul - 10:51:47 10° W 10:55:02 69° S 10:58:16 10° ESE daylight
10 Jul - 12:28:16 10° W 12:31:09 29° SSW 12:34:00 10° SE daylight
11 Jul - 06:47:13 10° S 06:49:16 16° SE 06:51:22 10° ESE daylight
11 Jul - 08:22:00 10° WSW 08:25:10 49° SSE 08:28:20 10° E daylight
11 Jul - 09:58:10 10° W 10:01:26 75° S 10:04:40 10° E daylight
11 Jul - 11:34:34 10° W 11:37:39 41° SSW 11:40:43 10° SE daylight
11 Jul - 13:12:08 10° WSW 13:13:26 12° SW 13:14:40 10° SSW daylight
12 Jul - 07:28:35 10° SW 07:31:37 36° SSE 07:34:39 10° E daylight
12 Jul - 09:04:33 10° W 09:07:48 74° S 09:11:03 10° E daylight
12 Jul - 10:40:53 10° W 10:44:05 54° SSW 10:47:16 10° ESE daylight
12 Jul - 12:17:41 10° W 12:20:02 18° SW 12:22:19 10° S daylight
13 Jul - 06:35:21 10° SSW 06:38:06 25° SSE 06:40:52 10° E daylight
13 Jul - 08:10:56 10° WSW 08:14:09 65° S 08:17:24 10° E daylight
13 Jul - 09:47:13 10° W 09:50:27 67° S 09:53:42 10° ESE daylight
13 Jul - 11:23:44 10° W 11:26:33 27° SSW 11:29:20 10° SSE daylight
14 Jul - 05:42:25 10° S 05:44:37 17° SE 05:46:52 10° E daylight
14 Jul - 07:17:21 10° WSW 07:20:32 52° SSE 07:23:43 10° E daylight
14 Jul - 08:53:33 10° W 08:56:48 75° S 09:00:03 10° E daylight
14 Jul - 10:29:57 10° W 10:33:00 38° SSW 10:36:02 10° SE daylight
14 Jul - 12:07:54 10° SW 12:08:45 11° SW 12:09:31 10° SSW daylight
15 Jul - 04:50:15 10° SSE 04:51:10 11° SE 04:52:11 10° ESE daylight
15 Jul - 06:23:52 10° SW 06:26:55 39° SSE 06:29:59 10° E daylight
15 Jul - 07:59:52 10° W 08:03:08 75° S 08:06:23 10° E daylight
15 Jul - 09:36:13 10° W 09:39:23 52° SSW 09:42:34 10° ESE daylight
15 Jul - 11:13:06 10° WSW 11:15:18 17° SW 11:17:28 10° S daylight
